Location: Hormuz
(27.0871°N, 56.4580°E)
Time: 14:25:12
(UTC+04:30)

N. Korean satellite - Visible Passes

Search period start: 25 June 2021 00:00
Search period end: 05 July 2021 00:00
Orbit: 450 x 499 km, 97.2° (Epoch: 24 June)

Date Brightness Start Highest point End Pass type
(mag) Time Alt. Az. Time Alt. Az. Time Alt. Az.
25 Jun 9.4 05:14:17 10° NE 05:16:58 19° E 05:19:40 10° SE visible
28 Jun 8.8 05:25:07 10° NE 05:28:19 28° E 05:31:30 10° SSE visible
29 Jun 9.7 04:59:35 10° ENE 05:00:55 12° E 05:02:15 10° ESE visible
02 Jul 9.5 05:09:46 10° NE 05:12:13 17° E 05:14:39 10° SE visible
